GW4661 Weather Reports


Display with metric or nautical units.
time (UTC)temp
F
wind
direction
speed
MPH
gust
MPH
rain 1hr
in
rain 24hr
in
rain mn
in
humidity
%
barometer
mb
20260504150616 68 291 2.0 8.0 0.00 0.00 0.00 46 1014.7
20260504150118 66 0 1.0 9.0 0.00 0.00 0.00 48 1014.7
20260504141011 64 299 3.0 10.0 0.00 0.00 0.00 51 1015.0
20260504140508 64 297 2.0 7.0 0.00 0.00 0.00 52 1015.0
20260504140244 64 245 2.0 7.0 0.00 0.00 0.00 52 1015.1
20260504130640 61 215 2.0 9.0 0.00 0.00 0.00 54 1015.4
20260504130510 61 215 2.0 9.0 0.00 0.00 0.00 54 1015.4
20260504110511 44 0 0.0 0.0 0.00 0.00 0.00 88 1016.4
20260504100510 38 0 0.0 0.0 0.00 0.00 0.00 89 1016.5
20260504081527 39 0 0.0 0.0 0.00 0.00 0.00 87 1016.4
20260504081013 40 0 0.0 0.0 0.00 0.00 0.00 86 1016.3
20260504080509 39 0 0.0 0.0 0.00 0.00 0.00 85 1016.2
20260504050511 40 0 0.0 1.0 0.00 0.00 0.00 77 1015.9
20260504045507 40 0 0.0 0.0 0.00 0.00 0.00 77 1015.7
20260504045009 40 0 0.0 0.0 0.00 0.00 0.00 77 1015.7
20260504044531 40 0 0.0 1.0 0.00 0.00 0.00 76 1015.7
20260504044010 40 0 0.0 1.0 0.00 0.00 0.00 75 1015.7
20260504043510 40 0 0.0 0.0 0.00 0.00 0.00 75 1015.7
20260504043042 40 0 0.0 0.0 0.00 0.00 0.00 75 1015.7
20260504042509 40 0 0.0 0.0 0.00 0.00 0.00 76 1015.7
20260504042008 40 0 0.0 0.0 0.00 0.00 0.00 75 1015.7
20260504041535 40 0 0.0 0.0 0.00 0.00 0.00 75 1015.7
20260504041007 40 0 0.0 0.0 0.00 0.00 0.00 75 1015.6
20260504040509 40 0 0.0 0.0 0.00 0.00 0.00 75 1015.5
20260504040124 40 0 0.0 0.0 0.00 0.00 0.00 74 1015.5
20260504040029 40 0 0.0 0.0 0.00 0.00 0.00 74 1015.5
20260504035511 40 0 0.0 0.0 0.00 0.00 0.00 74 1015.5
20260504035009 40 0 0.0 0.0 0.00 0.00 0.00 76 1015.5
20260504034528 40 0 0.0 0.0 0.00 0.00 0.00 75 1015.4
20260504034013 40 0 0.0 0.0 0.00 0.00 0.00 73 1015.3
20260504033511 40 0 0.0 0.0 0.00 0.00 0.00 73 1015.3
20260504033030 41 0 0.0 0.0 0.00 0.00 0.00 72 1015.3
20260504032510 41 0 0.0 0.0 0.00 0.00 0.00 73 1015.3
20260504032010 41 0 0.0 0.0 0.00 0.00 0.00 74 1015.3
20260504031528 41 0 0.0 0.0 0.00 0.00 0.00 73 1015.2
20260504031008 41 0 0.0 0.0 0.00 0.00 0.00 73 1015.2
20260504030514 42 0 0.0 0.0 0.00 0.00 0.00 72 1015.2
20260504030033 42 0 0.0 0.0 0.00 0.00 0.00 71 1015.3
20260504025512 42 0 0.0 0.0 0.00 0.00 0.00 70 1015.3
20260504025008 42 0 0.0 0.0 0.00 0.00 0.00 70 1015.3
20260504024528 42 0 0.0 0.0 0.00 0.00 0.00 70 1015.2
20260504024022 43 0 0.0 0.0 0.00 0.00 0.00 71 1015.3
20260504023510 43 0 0.0 0.0 0.00 0.00 0.00 69 1015.2
20260504023029 43 0 0.0 0.0 0.00 0.00 0.00 68 1015.3
20260504022508 43 0 0.0 0.0 0.00 0.00 0.00 69 1015.2
20260504022011 43 0 0.0 0.0 0.00 0.00 0.00 69 1015.2
20260504021533 43 0 0.0 0.0 0.00 0.00 0.00 69 1015.3
20260504021012 43 0 0.0 0.0 0.00 0.00 0.00 68 1015.3
20260504020509 43 0 0.0 0.0 0.00 0.00 0.00 66 1015.2
20260504020031 43 0 0.0 0.0 0.00 0.00 0.00 66 1015.3
20260504015510 44 0 0.0 1.0 0.00 0.00 0.00 66 1015.3
20260504015009 44 0 0.0 1.0 0.00 0.00 0.00 66 1015.3
20260504014537 44 0 0.0 0.0 0.00 0.00 0.00 67 1015.2
20260504014432 44 0 0.0 0.0 0.00 0.00 0.00 64 1015.1
20260504012510 45 0 0.0 1.0 0.00 0.00 0.00 60 1015.1
20260504012010 45 0 0.0 1.0 0.00 0.00 0.00 61 1015.0
20260504011528 45 0 0.0 0.0 0.00 0.00 0.00 65 1014.9
20260504011012 46 0 0.0 0.0 0.00 0.00 0.00 65 1014.8
20260504010509 46 0 0.0 0.0 0.00 0.00 0.00 61 1014.8
20260504010030 46 0 0.0 0.0 0.00 0.00 0.00 65 1014.7
20260504005509 46 0 0.0 0.0 0.00 0.00 0.00 64 1014.6
20260504005014 47 0 0.0 0.0 0.00 0.00 0.00 59 1014.6
20260504004528 47 0 0.0 0.0 0.00 0.00 0.00 57 1014.4
20260504004010 48 0 0.0 0.0 0.00 0.00 0.00 57 1014.4
20260504003509 48 0 0.0 0.0 0.00 0.00 0.00 58 1014.3
20260504003034 49 0 0.0 0.0 0.00 0.00 0.00 57 1014.3
20260504002509 49 0 0.0 0.0 0.00 0.00 0.00 57 1014.2
20260504002014 49 0 0.0 0.0 0.00 0.00 0.00 54 1014.2
20260504001532 50 0 0.0 0.0 0.00 0.00 0.00 53 1014.1
20260504001010 50 0 0.0 0.0 0.00 0.00 0.00 53 1014.0
20260504000510 51 0 0.0 0.0 0.00 0.00 0.00 57 1014.0
20260504000028 51 0 0.0 0.0 0.00 0.00 0.00 51 1014.0
20260503235509 52 0 0.0 0.0 0.00 0.00 0.00 47 1013.9
20260503235011 53 0 0.0 0.0 0.00 0.00 0.00 45 1013.9
20260503234529 53 0 0.0 0.0 0.00 0.00 0.00 45 1013.7
20260503234009 54 0 0.0 1.0 0.00 0.00 0.00 44 1013.7
20260503233508 55 0 0.0 4.0 0.00 0.00 0.00 42 1013.6
20260503233029 55 0 0.0 4.0 0.00 0.00 0.00 41 1013.6
20260503232507 56 0 0.0 3.0 0.00 0.00 0.00 39 1013.6
20260503232144 56 211 0.0 3.0 0.00 0.00 0.00 38 1013.6
20260503231530 56 298 0.0 3.0 0.00 0.00 0.00 37 1013.6
20260503231036 56 0 0.0 3.0 0.00 0.00 0.00 39 1013.6
20260503230519 56 0 0.0 5.0 0.00 0.00 0.00 40 1013.6
20260503230029 57 0 1.0 5.0 0.00 0.00 0.00 38 1013.6
20260503225510 57 0 0.0 3.0 0.00 0.00 0.00 37 1013.5
20260503225011 57 0 0.0 3.0 0.00 0.00 0.00 38 1013.6
20260503224600 58 302 0.0 3.0 0.00 0.00 0.00 37 1013.6
20260503224009 58 0 0.0 5.0 0.00 0.00 0.00 37 1013.5
20260503223512 58 252 0.0 5.0 0.00 0.00 0.00 36 1013.6
20260503223028 58 345 0.0 7.0 0.00 0.00 0.00 38 1013.5
20260503222553 58 337 0.0 7.0 0.00 0.00 0.00 35 1013.5
20260503222020 58 150 1.0 6.0 0.00 0.00 0.00 35 1013.5
20260503221529 58 0 1.0 5.0 0.00 0.00 0.00 35 1013.5
20260503221011 58 283 1.0 5.0 0.00 0.00 0.00 35 1013.6
20260503220508 58 0 1.0 5.0 0.00 0.00 0.00 34 1013.5
20260503220030 58 315 1.0 6.0 0.00 0.00 0.00 35 1013.4
20260503215511 58 295 1.0 6.0 0.00 0.00 0.00 36 1013.4
20260503215037 58 275 1.0 7.0 0.00 0.00 0.00 35 1013.5
20260503214528 58 333 2.0 7.0 0.00 0.00 0.00 34 1013.3
20260503214157 58 123 2.0 6.0 0.00 0.00 0.00 34 1013.2
20260503214007 58 123 2.0 6.0 0.00 0.00 0.00 34 1013.2
20260503213508 59 351 1.0 9.0 0.00 0.00 0.00 35 1013.3
20260503213030 58 344 1.0 9.0 0.00 0.00 0.00 36 1013.0
20260503212509 59 295 3.0 9.0 0.00 0.00 0.00 33 1013.1
20260503212009 59 292 1.0 6.0 0.00 0.00 0.00 35 1013.2
20260503211617 59 288 2.0 7.0 0.00 0.00 0.00 34 1013.2
20260503211132 59 57 1.0 7.0 0.00 0.00 0.00 34 1013.1
20260503210513 59 246 2.0 7.0 0.00 0.00 0.00 33 1013.2
20260503210028 60 293 1.0 7.0 0.00 0.00 0.00 33 1013.2
20260503205534 60 0 0.0 8.0 0.00 0.00 0.00 35 1013.2
20260503205007 59 273 2.0 8.0 0.00 0.00 0.00 35 1013.2
20260503204528 59 300 1.0 8.0 0.00 0.00 0.00 33 1013.2
20260503204013 60 273 1.0 8.0 0.00 0.00 0.00 33 1013.3
20260503203538 60 298 2.0 8.0 0.00 0.00 0.00 32 1013.2
20260503203029 60 277 2.0 7.0 0.00 0.00 0.00 34 1013.2
20260503202600 61 254 3.0 8.0 0.00 0.00 0.00 31 1013.3
20260503202017 60 251 0.0 8.0 0.00 0.00 0.00 31 1013.1
20260503201702 60 5 2.0 8.0 0.00 0.00 0.00 32 1013.1
20260503201530 60 5 2.0 8.0 0.00 0.00 0.00 32 1013.1
20260503201011 60 178 2.0 7.0 0.00 0.00 0.00 35 1013.1
20260503200632 61 246 1.0 7.0 0.00 0.00 0.00 33 1013.1
20260503200029 61 332 2.0 7.0 0.00 0.00 0.00 35 1013.0
20260503195538 60 312 2.0 8.0 0.00 0.00 0.00 31 1013.0
20260503195007 60 28 2.0 10.0 0.00 0.00 0.00 34 1013.1
20260503194548 60 298 1.0 10.0 0.00 0.00 0.00 33 1013.2
20260503194036 60 281 1.0 8.0 0.00 0.00 0.00 34 1013.2
20260503193540 59 286 3.0 8.0 0.00 0.00 0.00 32 1013.3
20260503193029 60 199 1.0 8.0 0.00 0.00 0.00 36 1013.3
20260503192509 59 41 1.0 8.0 0.00 0.00 0.00 35 1013.4
20260503192010 60 275 1.0 7.0 0.00 0.00 0.00 33 1013.5
20260503191608 60 346 1.0 15.0 0.00 0.00 0.00 35 1013.4
20260503191008 59 360 2.0 15.0 0.00 0.00 0.00 39 1013.5
20260503190511 59 267 3.0 9.0 0.00 0.00 0.00 34 1013.6
20260503190131 59 247 2.0 8.0 0.00 0.00 0.00 33 1013.7
20260503185510 60 266 2.0 7.0 0.00 0.00 0.00 35 1013.7
20260503185011 60 346 2.0 9.0 0.00 0.00 0.00 35 1013.8
20260503184529 60 360 2.0 9.0 0.00 0.00 0.00 35 1013.8
20260503184010 59 286 2.0 7.0 0.00 0.00 0.00 34 1013.9
20260503183745 58 29 1.0 6.0 0.00 0.00 0.00 41 1013.9
20260503183511 58 29 1.0 6.0 0.00 0.00 0.00 41 1013.9
20260503183030 58 324 1.0 7.0 0.00 0.00 0.00 44 1013.9
20260503182554 58 281 2.0 7.0 0.00 0.00 0.00 39 1013.9
20260503182100 59 259 2.0 6.0 0.00 0.00 0.00 36 1014.0
20260503181527 57 55 2.0 6.0 0.00 0.00 0.00 40 1014.0
20260503181011 58 27 2.0 6.0 0.00 0.00 0.00 35 1013.9
20260503180512 58 0 1.0 9.0 0.00 0.00 0.00 37 1013.9
20260503180042 58 325 2.0 9.0 0.00 0.00 0.00 39 1013.9
20260503175510 58 194 2.0 9.0 0.00 0.00 0.00 36 1014.1
20260503175009 58 294 2.0 7.0 0.00 0.00 0.00 38 1014.0
20260503174708 57 296 4.0 7.0 0.00 0.00 0.00 37 1014.0
20260503174032 57 275 2.0 9.0 0.00 0.00 0.00 40 1014.0
20260503173550 58 45 2.0 9.0 0.00 0.00 0.00 36 1014.0
20260503173028 57 351 3.0 9.0 0.00 0.00 0.00 36 1013.9
20260503172510 56 238 2.0 8.0 0.00 0.00 0.00 41 1013.9
20260503172332 57 263 1.0 8.0 0.00 0.00 0.00 40 1014.0
20260503171529 57 273 2.0 8.0 0.00 0.00 0.00 38 1013.9
20260503171007 58 5 2.0 7.0 0.00 0.00 0.00 40 1014.1
20260503170514 57 257 2.0 7.0 0.00 0.00 0.00 41 1013.9
20260503160122 56 20 1.0 6.0 0.00 0.00 0.00 46 1014.2